RH
27 25 25 20 17 19 23 24 20 21 29 33 45 40 34 32 36 38 54 58 59 78 83 77 80 80 66 42 27 24 23 25 29 29 29 30 28 29 32 33 32 30 27 27 26
43 45 34 30 29 24 25 20 17 21 23 27 30 38 42 41 51 58 82 85 82 100 97 95 97 87 62 34 25 25 25 28 33 34 30 28 27 30 34 33 33 30 29 28 25
60 58 51 44 36 31 26 25 24 21 22 22 27 37 40 48 58 62 65 82 94 100 100 99 100 92 52 29 27 27 26 32 38 36 33 28 27 33 33 30 31 30 29 29 24
74 84 73 58 43 36 32 29 22 19 19 21 24 34 41 55 65 53 55 66 85 99 100 100 99 87 42 31 31 29 28 33 37 34 32 29 27 34 30 28 29 30 34 32 30
78 79 78 65 47 41 32 19 14 12 12 14 20 30 38 50 60 54 49 61 73 98 100 100 100 82 36 33 31 31 32 35 34 32 30 29 25 32 31 30 31 33 38 36 37
71 73 80 70 55 46 26 16 13 12 12 13 15 20 31 48 49 45 49 61 83 99 100 100 100 75 35 34 32 32 31 34 31 28 26 26 24 34 32 33 35 37 37 37 36
62 74 71 67 61 47 25 19 17 16 14 14 16 20 25 32 38 44 52 77 100 100 100 100 100 70 37 36 34 32 29 32 31 29 25 24 25 36 34 34 36 39 41 43 41
82 68 63 81 68 48 28 23 23 21 18 19 20 22 27 30 38 46 71 96 100 100 100 100 100 67 39 38 35 33 31 34 32 32 28 27 26 34 36 38 37 37 38 41 45
84 65 64 90 78 52 33 28 27 26 25 25 27 28 33 37 43 70 94 100 100 100 100 100 100 67 41 39 36 36 34 36 36 40 35 32 27 30 38 38 40 42 40 41 43
90 66 66 99 95 58 38 33 34 31 31 32 34 36 44 55 69 90 100 100 100 100 100 100 100 66 44 41 37 34 38 41 45 49 46 36 34 32 37 41 45 44 43 42 44
100 78 70 98 100 70 44 38 42 40 36 39 43 63 76 89 100 100 100 100 100 100 100 100 100 66 44 40 40 40 45 50 49 47 49 37 35 36 41 43 45 49 51 49 50
100 100 75 93 100 86 51 47 43 52 57 61 78 97 98 98 100 100 100 100 100 100 100 100 99 66 46 45 43 40 42 48 48 53 50 47 41 37 35 38 44 45 47 49 48
100 100 93 83 100 96 65 54 51 46 63 82 99 100 100 100 100 100 100 100 100 100 100 100 100 65 47 46 46 44 42 45 45 51 58 63 51 43 41 41 38 38 39 41 45
100 100 100 84 98 100 84 59 59 50 49 66 98 100 100 100 100 100 100 100 100 100 100 100 100 79 46 46 48 47 45 44 43 44 45 49 52 51 45 42 44 50 49 45 42
94 100 100 94 85 100 98 80 59 62 50 49 63 93 100 100 100 100 100 100 100 100 100 100 100 97 74 40 41 47 47 48 48 46 44 45 42 44 55 48 46 46 48 52 53
100 100 100 100 93 83 100 98 77 50 61 75 69 70 75 79 90 95 98 100 100 100 100 99 99 97 86 64 42 39 47 47 49 54 48 52 50 37 47 60 62 52 48 47 48
100 100 100 100 100 93 90 100 98 71 84 94 98 87 76 74 69 68 70 77 83 89 94 96 100 100 87 78 57 43 36 40 46 46 44 50 49 38 47 49 50 52 52 56 58
70 100 100 100 100 100 91 85 90 100 100 100 100 96 93 82 75 71 74 77 75 84 94 95 98 99 92 84 73 53 43 38 37 42 46 50 46 46 45 44 45 45 45 48 52
48 100 100 100 100 100 100 80 80 99 100 100 100 98 93 89 93 91 88 89 94 94 96 96 95 97 99 95 90 77 63 51 43 38 36 34 35 37 45 51 51 51 50 48 46
33 91 100 98 100 100 100 100 93 92 96 100 100 100 100 100 95 92 92 88 87 86 87 91 90 95 97 96 97 97 93 89 84 78 72 67 60 54 46 43 42 41 41 40 41
36 44 100 100 100 100 100 100 100 99 92 97 100 100 100 100 100 100 100 100 99 95 90 81 75 73 72 74 77 79 80 81 81 80 80 78 75 74 72 70 68 67 65 63 61
42 34 70 100 100 100 100 100 100 100 100 100 100 99 100 100 100 100 100 100 100 100 98 99 96 97 96 95 98 99 94 92 89 80 76 70 64 64 63 62 60 58 58 58 59
36 40 35 71 100 96 100 100 100 100 100 100 100 100 100 100 99 100 100 100 100 100 100 100 99 100 100 98 99 99 98 99 98 94 88 87 72 67 66 68 66 65 63 62 63
44 44 38 38 64 97 100 100 100 100 100 100 100 100 100 100 100 100 100 98 98 100 100 100 100 100 95 95 98 93 89 88 85 83 81 76 72 65 63 63 64 64 65 61 58
64 61 48 41 39 41 49 95 100 99 98 99 100 100 100 100 100 100 100 100 100 100 100 100 100 98 96 95 90 93 98 99 98 95 91 95 94 86 81 75 66 60 57 55 52
73 74 73 64 48 42 47 46 59 98 100 100 100 100 100 100 99 100 100 100 100 100 96 96 95 100 100 99 95 93 96 100 100 100 95 88 89 91 88 85 79 73 67 63 59
92 90 94 85 80 63 53 51 57 66 98 99 100 100 99 95 93 95 95 94 96 94 95 94 92 93 95 99 98 95 94 85 82 79 74 71 69 67 64 60 56 51 49 47 45
Wind_Speed
55 55 53 55 59 61 62 61 60 59 60 63 65 67 72 71 70 72 66 65 60 56 51 50 45 38 36 33 30 25 22 20 25 26 25 25 26 27 27 27 27 26 27 26 24
49 48 50 50 49 51 51 53 55 56 55 56 60 63 64 64 65 63 64 58 53 48 44 41 39 33 32 34 29 25 24 27 28 27 26 27 29 29 30 30 29 28 27 26 25
43 45 45 46 46 48 48 48 48 50 54 55 55 57 59 57 55 56 54 51 48 44 38 35 35 33 33 33 30 28 29 32 31 29 29 30 32 33 33 33 30 27 26 23 22
40 40 41 42 41 42 41 43 44 44 46 49 53 54 53 51 52 49 47 44 42 39 37 36 34 34 34 33 32 33 34 36 35 33 32 34 35 36 35 31 30 28 25 23 22
39 42 41 40 39 37 37 36 37 38 40 44 48 51 52 52 50 45 42 40 39 38 40 38 37 35 36 37 36 40 40 39 38 37 37 37 37 37 36 33 32 31 29 27 28
40 40 40 40 37 34 33 29 28 30 34 38 44 48 51 52 52 46 42 40 38 40 43 41 38 38 39 39 40 43 43 41 38 38 39 40 36 38 38 35 35 33 31 31 31
37 37 37 36 34 31 29 24 23 24 28 34 39 44 49 51 50 48 44 42 42 43 44 42 40 41 40 41 43 47 46 42 40 39 40 40 40 42 40 40 38 37 35 34 34
39 37 34 32 32 29 25 22 20 22 27 32 37 41 45 46 47 47 44 43 45 45 44 42 42 43 43 45 45 48 48 45 42 41 41 42 44 43 43 42 41 40 40 39 38
40 37 34 31 30 28 24 22 21 25 28 32 37 40 43 44 45 45 44 44 46 45 44 43 43 45 47 49 48 51 50 46 43 44 45 45 46 46 45 45 45 44 44 43 42
41 37 33 32 29 28 25 22 22 27 30 34 38 41 42 44 44 44 46 47 46 46 45 46 46 48 51 51 50 49 51 50 48 48 50 49 48 48 48 48 48 48 48 48 47
43 39 35 33 31 29 28 24 25 28 33 36 38 40 42 43 43 44 46 46 44 44 46 46 47 53 51 48 50 54 55 55 55 53 52 51 51 52 52 52 52 53 52 52 52
45 42 38 36 35 31 30 28 28 30 35 37 38 40 43 44 45 46 46 45 45 46 46 48 52 50 51 54 56 59 59 59 59 57 55 54 54 55 57 56 56 56 56 57 58
48 45 40 38 37 35 32 32 31 33 37 39 40 42 43 43 45 46 47 46 47 46 48 50 53 52 54 57 59 60 61 64 63 62 60 60 58 58 59 59 60 61 62 62 63
51 48 45 43 41 38 35 35 34 34 37 42 44 45 46 46 45 47 47 47 47 48 49 53 55 55 56 60 62 63 65 66 67 67 66 66 64 62 63 64 64 65 66 67 68
56 51 48 46 44 41 39 37 38 37 36 39 43 48 49 48 49 48 50 50 50 51 53 55 57 59 59 59 61 65 68 69 70 70 70 69 72 65 68 68 70 71 72 72 73
59 53 50 47 47 45 42 40 40 39 36 38 43 45 49 51 51 51 51 52 52 53 55 57 59 60 61 60 60 63 68 72 74 75 73 72 76 70 73 73 75 77 79 80 81
62 58 54 49 47 48 48 44 40 38 42 42 45 47 48 49 50 51 52 53 54 55 57 58 59 61 62 63 62 63 67 71 74 78 79 80 82 76 78 80 82 83 84 85 85
66 63 59 54 51 49 49 50 43 40 45 47 49 49 49 49 50 52 52 53 54 56 58 60 62 63 64 65 66 66 67 70 71 74 78 82 83 82 85 86 88 90 91 91 91
66 67 65 60 56 53 51 48 49 48 47 49 51 51 51 52 52 52 54 54 55 58 61 63 63 65 66 67 69 69 71 72 74 74 76 75 75 77 80 86 89 92 94 95 96
66 70 69 66 61 57 52 49 51 55 53 50 49 52 53 54 55 55 56 56 59 61 64 65 67 68 68 70 71 72 74 76 78 79 80 78 79 77 80 84 85 87 88 89 91
65 69 72 70 67 63 58 53 53 54 56 56 54 53 54 56 56 57 58 61 62 64 64 66 68 69 71 72 74 76 77 79 83 83 84 84 83 83 86 89 92 93 94 94 95
61 68 73 75 72 68 65 61 58 56 56 59 61 60 59 58 58 58 61 63 64 65 66 69 71 73 74 75 76 79 80 83 86 86 89 91 89 91 94 96 97 98 99 101 102
54 63 69 74 79 76 70 68 66 63 63 62 61 61 64 64 63 64 64 64 65 66 68 71 72 75 76 78 80 82 84 87 89 91 91 95 93 95 97 98 99 100 101 103 104
51 57 65 69 73 77 79 76 73 71 69 68 66 65 65 66 68 70 71 71 72 72 73 75 76 78 79 80 82 83 86 88 90 92 93 94 96 97 98 99 101 103 105 106 107
47 51 60 66 70 72 75 81 82 79 76 75 73 72 72 72 72 72 72 73 76 79 81 82 83 84 85 87 88 90 91 93 95 96 98 100 102 104 106 107 109 111 113 114 115
43 46 52 60 67 72 74 74 79 84 84 82 81 80 79 79 80 79 80 80 80 81 82 83 84 87 88 90 91 93 95 98 100 103 105 107 109 112 113 116 118 120 123 124 126
42 44 46 54 60 66 70 74 73 77 82 88 86 85 86 86 86 86 86 86 87 88 89 90 92 93 94 97 99 101 104 106 109 111 114 116 119 121 124 126 128 131 132 134 135
Wind_Direction
266 264 265 268 268 268 267 268 265 261 255 251 247 245 250 255 254 256 255 256 257 258 260 262 264 262 264 256 257 250 251 239 231 224 226 213 207 197 192 191 191 189 188 192 189
262 262 265 266 266 268 268 265 262 259 254 248 245 244 244 246 247 248 248 248 251 251 254 256 253 251 248 249 246 244 240 226 219 221 224 215 210 200 196 196 197 199 196 200 200
259 263 265 268 270 268 266 265 261 255 250 246 242 240 240 240 242 243 245 246 247 248 247 247 242 243 242 243 243 241 230 217 217 221 221 217 209 205 203 201 201 205 208 212 212
260 263 265 267 270 270 269 266 260 252 244 239 237 234 234 235 237 241 240 240 241 244 235 231 236 236 236 236 240 237 227 217 219 224 225 222 215 208 208 206 206 209 216 217 220
263 263 264 270 273 275 274 268 258 251 242 234 230 228 228 229 231 234 234 235 236 229 224 229 234 234 232 233 234 230 226 221 224 228 228 226 223 214 213 212 213 215 217 218 223
263 265 265 265 272 277 277 266 253 241 233 226 223 222 222 225 228 227 229 230 226 223 224 231 232 231 230 232 233 231 228 225 225 227 229 227 224 216 216 216 218 221 223 224 226
259 262 265 262 268 275 273 262 249 234 222 215 214 215 217 221 223 225 223 224 222 221 227 232 229 230 229 231 232 232 229 227 225 227 229 227 220 217 219 220 221 224 225 229 232
254 257 262 257 263 270 267 251 238 225 216 210 210 210 211 215 217 220 219 219 218 223 229 228 226 228 230 232 232 231 230 227 225 227 227 224 221 221 222 226 227 227 229 230 232
248 250 254 253 257 263 258 243 229 221 213 208 205 205 207 210 213 214 215 216 218 226 229 229 227 229 230 233 232 230 232 228 225 229 227 226 223 224 225 228 231 232 234 236 237
243 243 248 248 251 255 251 240 228 220 214 210 207 205 206 207 211 215 218 219 223 228 230 231 227 229 230 233 234 235 234 231 227 229 231 227 227 229 229 230 233 236 237 239 241
238 238 241 244 245 247 246 237 226 220 218 212 208 207 208 210 213 216 218 220 228 229 227 228 228 230 232 235 235 233 231 230 231 231 234 233 232 232 233 233 235 237 239 241 243
233 235 235 238 241 241 239 237 227 221 218 214 213 212 212 214 216 217 221 226 228 228 228 227 230 232 233 233 234 234 234 233 233 234 236 237 235 236 237 237 238 240 242 243 244
230 234 233 234 237 238 237 234 231 223 220 219 219 219 219 222 224 224 224 228 229 229 229 229 232 233 234 234 236 235 236 236 237 235 235 239 238 238 239 241 243 243 243 245 246
224 231 235 234 232 235 235 232 232 229 223 223 223 225 225 227 227 227 228 231 232 233 232 232 234 234 236 236 236 237 238 239 240 240 239 241 242 242 243 245 246 247 248 249 249
225 226 231 233 231 233 233 233 230 231 228 226 227 228 230 230 233 232 233 235 236 236 235 234 235 237 238 239 239 240 241 241 242 242 243 244 246 243 247 248 248 250 251 252 252
225 224 227 232 233 231 233 233 232 229 229 231 231 231 231 232 235 237 237 238 239 239 239 238 240 241 242 243 243 244 244 244 243 245 246 246 248 248 249 249 251 253 253 254 255
221 222 224 229 232 235 231 233 233 232 230 230 234 233 233 234 235 237 239 239 239 239 240 239 240 243 244 244 245 245 246 246 247 248 248 247 250 251 249 251 253 253 254 255 256
223 220 221 226 232 235 235 233 232 234 233 231 233 235 235 236 238 238 238 239 240 240 241 241 241 242 244 247 247 247 247 248 248 248 249 249 251 253 253 253 253 255 256 257 257
223 222 222 224 227 232 236 236 234 234 237 235 235 236 238 238 239 240 241 240 241 241 242 243 243 245 246 247 249 249 250 251 252 251 251 251 252 251 254 255 256 257 257 257 258
223 222 223 224 226 229 232 236 236 236 236 238 240 238 239 241 241 241 241 243 244 244 245 246 246 247 248 250 251 252 252 253 254 254 254 254 254 255 255 256 258 258 258 259 260
224 223 224 226 226 227 231 231 238 240 240 240 240 241 242 242 242 244 245 245 246 246 247 249 250 250 251 252 252 254 255 256 256 257 257 256 256 256 256 256 257 258 259 259 260
226 226 226 227 227 228 228 231 232 235 242 242 242 242 242 243 244 245 246 248 249 250 251 252 252 252 253 253 254 255 256 257 258 258 259 258 257 258 257 257 258 259 260 260 260
230 228 228 229 231 230 230 231 233 234 237 239 241 244 245 246 247 247 247 248 250 252 252 253 254 255 256 256 257 258 258 259 260 261 261 262 263 261 262 262 263 262 262 262 262
232 231 230 229 231 233 233 234 235 237 237 238 242 243 244 245 247 248 249 250 250 251 252 254 255 256 257 258 259 260 262 263 263 264 264 265 265 265 264 264 264 265 264 265 265
236 233 231 231 232 234 234 236 238 239 240 241 241 242 244 246 247 248 249 251 251 252 253 254 255 257 258 260 260 261 262 263 264 265 266 266 267 267 268 268 268 268 268 268 267
244 239 233 234 234 234 234 237 237 238 239 240 242 244 245 247 248 250 251 253 254 255 256 257 257 258 259 260 261 262 262 263 263 264 265 266 267 268 268 269 269 269 270 270 271
241 243 241 238 237 236 237 237 238 240 242 243 244 245 247 248 250 252 253 254 255 257 258 259 260 260 260 260 261 262 262 263 265 266 267 268 269 269 270 270 270 270 270 271 272